[[{"header":{"parameterUnit":"m.s-1","parameterCategory":1,"la1":30.2991,"la2":30.254,"lo1":-89.0895,"lo2":-89.0444,"dy":0.0017,"dx":0.0017,"nx":28,"ny":28,"refTime":"2024-12-14T09:00:00:Z","depth":0,"parameterNumber":2,"parameterNumberName":"U-component_of_WINDS"},"data":[0,0,0,0,0,0,0,0,0,0,0,0,0,0,0,0,0,0,0,0,0,0,0,0,0,0,0,0,0,0,0,0,0,0,0,0,0,0,0,0,0,0,0,0,0,0,0,0,0,0,0,0,0,0,0,0,0,0,-5.6972,-5.6971,0,-5.6877,-5.6876,-5.6875,-5.6709,-5.6706,-5.6703,-5.67,-5.6605,-5.6606,-5.6606,0,0,0,0,0,0,0,0,0,0,0,0,0,-5.7018,-5.7018,-5.6973,-5.6971,-5.697,-5.6877,-5.6876,-5.6874,-5.671,-5.6706,-5.6702,-5.6699,-5.6605,-5.6606,-5.6606,0,0,0,0,0,0,0,0,0,0,0,0,0,-5.6968,-5.7018,-5.6973,-5.6877,-5.6867,-5.6877,-5.6876,-5.6874,-5.6711,-5.6706,-5.6701,-5.6697,-5.6605,-5.6606,-5.6606,-5.6703,0,0,-5.6608,-5.6608,0,0,0,0,0,0,0,0,-5.6971,-5.6966,-5.6892,-5.6883,-5.6873,-5.68,-5.6857,-5.6817,-5.6712,-5.677,-5.67,-5.6695,-5.6674,-5.6669,-5.6661,-5.6699,-5.6695,-5.6608,-5.6608,-5.6609,-5.6609,0,0,0,0,0,0,0,-5.6974,-5.697,-5.6935,-5.6891,-5.6879,-5.684,-5.6828,-5.6848,-5.675,-5.6765,-5.6752,-5.6743,-5.6668,-5.6661,-5.6658,-5.6693,-5.6608,-5.6609,-5.6609,-5.6609,-5.6808,-5.6813,0,0,0,0,0,0,-5.6991,-5.6973,-5.6938,-5.6932,-5.6911,-5.6843,-5.6829,-5.6828,-5.6749,-5.6732,-5.6747,-5.6736,-5.6662,-5.6657,-5.6654,-5.6763,-5.6609,-5.6609,-5.661,-5.6803,-5.6809,-5.6815,0,0,0,0,0,0,-5.6993,-5.699,-5.6941,-5.6949,-5.694,-5.6847,-5.6847,-5.6829,-5.6821,-5.6736,-5.6718,-5.6758,-5.6658,-5.6653,-5.6692,-5.6757,-5.6609,-5.661,-5.6797,-5.6805,-5.6812,-5.6982,0,0,0,0,0,0,-5.6995,-5.6991,-5.7026,-5.6951,-5.694,-5.6981,-5.6851,-5.683,-5.6822,-5.6807,-5.6741,-5.6726,-5.6654,-5.6692,-5.6693,-5.6755,-5.661,-5.6791,-5.6801,-5.681,-5.697,-5.6994,-5.7014,0,0,0,0,0,-5.6997,-5.7078,-5.7028,-5.7025,-5.6981,-5.6985,-5.6978,-5.6894,-5.6828,-5.6863,-5.6809,-5.6728,-5.6751,-5.6698,-5.6697,-5.6761,-5.6787,-5.6798,-5.6809,-5.696,-5.6989,-5.7014,0,0,0,0,0,0,-5.7163,-5.7066,-5.701,-5.7069,-5.7036,-5.6957,-5.6997,-5.6928,-5.6913,-5.6899,-5.6796,-5.6783,-5.6836,-5.6802,-5.6745,-5.6851,-5.6756,-5.6768,-5.6871,-5.6898,-5.692,-5.6927,-5.6611,0,0,0,0,0,-5.7206,-5.7216,-5.7131,-5.7191,-5.7178,-5.7092,-5.7089,-5.7027,-5.699,-5.6975,-5.6923,-5.6891,-5.6891,-5.6893,-5.6888,-5.6965,-5.6949,-5.7008,-5.7031,-5.705,-5.706,-5.71,-5.7126,-5.6851,-5.6851,-5.6851,0,0,-5.7296,-5.7244,-5.7256,-5.7223,-5.719,-5.7204,-5.708,-5.71,-5.7109,-5.6978,-5.7012,-5.6974,-5.6931,-5.699,-5.7014,-5.6964,-5.7133,-5.7064,-5.7079,-5.708,-5.7114,-5.714,-5.7164,-5.6859,-5.6857,-5.6856,0,0,-5.7465,-5.7427,-5.7473,-5.7443,-5.7395,-5.7338,-5.735,-5.7281,-5.7251,-5.7283,-5.7186,-5.7197,-5.7198,-5.7172,-5.7159,-5.7324,-5.7249,-5.7325,-5.7441,-5.7481,-5.7503,-5.7522,-5.7581,-5.7603,-5.7336,-5.7337,-5.7337,0,-5.7582,-5.7597,-5.7506,-5.7531,-5.7521,-5.7403,-5.745,-5.7426,-5.7381,-5.7376,-5.7321,-5.7322,-5.7285,-5.7337,-5.7377,-5.7371,-5.7382,-5.7331,-5.7507,-5.7525,-5.7541,-5.7596,-5.7619,-5.7346,-5.7345,-5.7344,-5.7343,0,-5.7744,-5.7757,-5.78,-5.7758,-5.7752,-5.7789,-5.7705,-5.771,-5.765,-5.76,-5.7636,-5.7588,-5.7572,-5.758,-5.7521,-5.7625,-5.7595,-5.7526,-5.7427,-5.7578,-5.7628,-5.7649,-5.736,-5.7357,-5.7354,-5.7351,0,0,-5.8012,-5.7921,-5.7939,-5.7919,-5.7859,-5.7868,-5.7901,-5.7884,-5.7892,-5.7865,-5.7891,-5.7897,-5.7832,-5.7818,-5.7756,-5.7791,-5.7926,-5.7717,-5.7714,-5.7757,-5.8038,-5.809,-5.8116,-5.7877,-5.788,-5.7883,-5.8041,0,-5.8169,-5.8217,-5.8137,-5.8205,-5.8216,-5.8107,-5.8136,-5.8104,-5.8059,-5.8063,-5.8013,-5.8019,-5.7933,-5.7924,-5.7954,-5.7903,-5.798,-5.789,-5.79,-5.7902,-5.7913,-5.8142,-5.8196,-5.8347,-5.806,-5.8063,-5.8066,0,-5.8356,-5.8339,-5.8408,-5.8346,-5.8348,-5.8375,-5.8355,-5.836,-5.8323,-5.8287,-5.8274,-5.8201,-5.823,-5.8137,-5.8178,-5.8119,-5.8119,-5.8095,-5.8098,-5.8095,-5.7992,-5.8144,-5.8393,-5.8416,-5.8096,-5.8093,-5.8091,0,-5.8545,-5.8539,-5.8579,-5.8566,-5.8495,-5.8517,-5.8489,-5.8447,-5.8443,-5.8427,-5.8423,-5.8412,-5.8405,-5.8398,-5.8325,-5.8264,-5.8375,-5.8275,-5.8347,-5.835,-5.8374,-5.8373,-5.8626,-5.8377,-5.8376,-5.8376,-5.8375,0,-5.8727,-5.8773,-5.8663,-5.8688,-5.8738,-5.8648,-5.87,-5.8661,-5.8626,-5.8642,-5.8548,-5.8567,-5.8469,-5.8478,-5.8421,-5.8464,-5.8462,-5.8435,-5.8419,-5.8443,-5.8446,-5.844,-5.8427,-5.8382,-5.838,-5.8379,-5.8378,0,-5.8944,-5.8873,-5.891,-5.884,-5.8824,-5.8864,-5.8805,-5.8827,-5.8777,-5.8799,-5.88,-5.8722,-5.8727,-5.8654,-5.8645,-5.8607,-5.8676,-5.8642,-5.8688,-5.8677,-5.8753,-5.8747,-5.901,-5.904,-5.8773,-5.8775,-5.8778,0,-5.9064,-5.9097,-5.9032,-5.9036,-5.9013,-5.9021,-5.9017,-5.8931,-5.8931,-5.8893,-5.8919,-5.8917,-5.891,-5.8925,-5.8868,-5.8862,-5.8827,-5.892,-5.8825,-5.8848,-5.8828,-5.8826,-5.8829,-5.8939,-5.8942,-5.8945,-5.8947,0,-5.9285,-5.9249,-5.9245,-5.9232,-5.9229,-5.9214,-5.9193,-5.9203,-5.9109,-5.9115,-5.9119,-5.9114,-5.9106,-5.9105,-5.9089,-5.9061,-5.899,-5.8978,-5.8994,-5.9018,-5.9043,-5.903,-5.8741,-5.8972,-5.8969,-5.8967,-5.8966,-5.8965,-5.9456,-5.9481,-5.944,-5.9441,-5.9416,-5.9399,-5.9416,-5.9369,-5.9371,-5.9356,-5.9307,-5.932,-5.9285,-5.9255,-5.9235,-5.9245,-5.92,-5.9224,-5.9229,-5.9236,-5.925,-5.9043,-5.9242,-5.9241,-5.9241,-5.924,-5.9239,0,-5.9671,-5.964,-5.9642,-5.9616,-5.9617,-5.955,-5.9524,-5.953,-5.9543,-5.9516,-5.9512,-5.9518,-5.9518,-5.9463,-5.9457,-5.9476,-5.9443,-5.9477,-5.9474,-5.9469,-5.9291,-5.9277,-5.9504,-5.9504,-5.9504,-5.9504,-5.9504,-5.9504,-5.9783,-5.9822,-5.9782,-5.9809,-5.9778,-5.9789,-5.9781,-5.9766,-5.9744,-5.9755,-5.9754,-5.9718,-5.968,-5.9671,-5.9669,-5.9653,-5.9655,-5.97,-5.9673,-5.9507,-5.9482,-5.9457,-5.9444,-5.9702,-5.9702,-5.985,-5.9852,-5.9853]},{"header":{"parameterUnit":"m.s-1","parameterCategory":1,"la1":30.2991,"la2":30.254,"lo1":-89.0895,"lo2":-89.0444,"dy":0.0017,"dx":0.0017,"nx":28,"ny":28,"refTime":"2024-12-14T09:00:00:Z","depth":0,"parameterNumber":3,"parameterNumberName":"V-component_of_WINDS"},"data":[0,0,0,0,0,0,0,0,0,0,0,0,0,0,0,0,0,0,0,0,0,0,0,0,0,0,0,0,0,0,0,0,0,0,0,0,0,0,0,0,0,0,0,0,0,0,0,0,0,0,0,0,0,0,0,0,0,0,0.0414,0.0414,0,0.0469,0.047,0.0471,0.0544,0.0546,0.0547,0.0548,0.0603,0.0603,0.0604,0,0,0,0,0,0,0,0,0,0,0,0,0,0.0372,0.0372,0.0414,0.0415,0.0415,0.0469,0.047,0.0471,0.0544,0.0546,0.0547,0.0548,0.0603,0.0603,0.0604,0,0,0,0,0,0,0,0,0,0,0,0,0,0.0405,0.0372,0.0414,0.0458,0.0463,0.0469,0.047,0.0471,0.0544,0.0546,0.0547,0.0549,0.0603,0.0603,0.0604,0.057,0,0,0.0605,0.0606,0,0,0,0,0,0,0,0,0.0403,0.0406,0.0451,0.0455,0.046,0.0502,0.0476,0.0504,0.0543,0.0513,0.0548,0.055,0.0568,0.0571,0.0578,0.0573,0.0575,0.0605,0.0606,0.0606,0.0606,0,0,0,0,0,0,0,0.04,0.0404,0.0436,0.0452,0.0457,0.0476,0.0483,0.0481,0.0529,0.0516,0.0521,0.0527,0.0571,0.0577,0.0579,0.0576,0.0605,0.0606,0.0606,0.0606,0.0549,0.0548,0,0,0,0,0,0,0.0392,0.0402,0.0434,0.0438,0.0436,0.0475,0.0483,0.0487,0.053,0.0538,0.0525,0.053,0.0575,0.0579,0.0582,0.0547,0.0606,0.0606,0.0607,0.0551,0.0549,0.0547,0,0,0,0,0,0,0.039,0.0394,0.0432,0.0421,0.0428,0.0474,0.0478,0.0487,0.0493,0.0537,0.0546,0.0523,0.0577,0.0581,0.0573,0.055,0.0607,0.0607,0.0553,0.0551,0.0548,0.0477,0,0,0,0,0,0,0.0389,0.0393,0.038,0.042,0.0428,0.0422,0.0476,0.0487,0.0494,0.0501,0.0537,0.0545,0.0579,0.0572,0.0574,0.0552,0.0607,0.0556,0.0552,0.0549,0.0481,0.0472,0.0464,0,0,0,0,0,0.0387,0.0357,0.0379,0.0383,0.0413,0.0421,0.0425,0.0465,0.0492,0.048,0.0509,0.0544,0.0552,0.0571,0.0573,0.0551,0.0557,0.0553,0.0549,0.0485,0.0474,0.0464,0,0,0,0,0,0,0.0312,0.0363,0.0388,0.037,0.0391,0.0433,0.0419,0.0451,0.0464,0.047,0.0518,0.0526,0.0513,0.0531,0.0551,0.0522,0.056,0.0556,0.0511,0.05,0.0491,0.0488,0.0608,0,0,0,0,0,0.0293,0.0295,0.034,0.0319,0.0329,0.0372,0.0377,0.0406,0.0429,0.0438,0.0466,0.0486,0.0494,0.0498,0.0507,0.0484,0.0494,0.047,0.0462,0.0454,0.045,0.0442,0.0433,0.0534,0.0534,0.0534,0,0,0.0254,0.0283,0.0281,0.0305,0.0324,0.0326,0.0379,0.0377,0.0379,0.0437,0.0433,0.0454,0.048,0.0465,0.046,0.048,0.0425,0.0449,0.0443,0.0443,0.0437,0.0427,0.0419,0.0531,0.0531,0.0532,0,0,0.0185,0.0206,0.0193,0.0211,0.0241,0.027,0.0267,0.0305,0.0322,0.0318,0.0363,0.0365,0.0377,0.0395,0.0405,0.0345,0.0379,0.0347,0.0301,0.0292,0.0284,0.0278,0.0258,0.025,0.0343,0.0343,0.0343,0,0.0133,0.0137,0.0181,0.0178,0.0189,0.0243,0.023,0.0246,0.0276,0.0282,0.0305,0.0323,0.0344,0.0335,0.0321,0.0327,0.0326,0.0343,0.0282,0.0276,0.027,0.0252,0.0244,0.0339,0.0339,0.034,0.034,0,0.0073,0.0075,0.0061,0.0091,0.0099,0.0091,0.0135,0.0138,0.0167,0.0194,0.0191,0.0219,0.0236,0.0236,0.0264,0.0232,0.0244,0.0273,0.0312,0.0256,0.024,0.0233,0.0333,0.0335,0.0336,0.0337,0,0,-0.0044,0.0012,0.0007,0.0022,0.0059,0.0062,0.0057,0.0075,0.0077,0.0097,0.0095,0.0105,0.0133,0.0145,0.0176,0.0168,0.0121,0.0199,0.02,0.0185,0.009,0.0068,0.0059,0.0143,0.0142,0.0141,0.0088,0,-0.0105,-0.0109,-0.0069,-0.0084,-0.008,-0.0028,-0.0032,-0.0009,0.0017,0.0024,0.0052,0.006,0.0096,0.0104,0.0098,0.0128,0.0103,0.0132,0.0143,0.0143,0.0135,0.0051,0.0027,-0.0024,0.0082,0.0081,0.008,0,-0.0177,-0.016,-0.0175,-0.0134,-0.0131,-0.0136,-0.0114,-0.0109,-0.0081,-0.0062,-0.0047,-0.0012,-0.0013,0.0024,0.0024,0.0043,0.005,0.0066,0.0065,0.0068,0.0108,0.0053,-0.004,-0.0047,0.007,0.0071,0.0072,0,-0.0258,-0.0239,-0.0245,-0.0234,-0.0187,-0.0191,-0.0172,-0.0143,-0.0134,-0.0116,-0.0109,-0.0092,-0.0082,-0.0069,-0.0029,-0.0007,-0.0033,0.0006,-0.0016,-0.0017,-0.0024,-0.0024,-0.0116,-0.0022,-0.0022,-0.0022,-0.0022,0,-0.0331,-0.0341,-0.028,-0.0284,-0.0293,-0.0246,-0.0257,-0.0233,-0.0207,-0.0204,-0.0158,-0.0157,-0.0105,-0.0097,-0.0066,-0.007,-0.0066,-0.005,-0.0041,-0.0053,-0.0055,-0.0047,-0.0042,-0.0024,-0.0023,-0.0023,-0.0023,0,-0.0423,-0.0383,-0.0385,-0.034,-0.0329,-0.0338,-0.0299,-0.03,-0.0271,-0.0268,-0.0264,-0.0219,-0.0207,-0.0166,-0.0145,-0.0124,-0.0137,-0.0121,-0.0146,-0.014,-0.0164,-0.0162,-0.0253,-0.0262,-0.0164,-0.0165,-0.0166,0,-0.0471,-0.0478,-0.0433,-0.0427,-0.041,-0.0402,-0.0392,-0.0345,-0.0336,-0.0304,-0.0309,-0.0293,-0.0278,-0.0262,-0.0227,-0.0209,-0.0192,-0.0225,-0.0189,-0.02,-0.0191,-0.019,-0.019,-0.0233,-0.0234,-0.0235,-0.0236,0,-0.056,-0.0539,-0.0526,-0.0506,-0.0495,-0.0477,-0.0456,-0.0455,-0.0402,-0.0395,-0.0381,-0.037,-0.0347,-0.0331,-0.0308,-0.0288,-0.0253,-0.0248,-0.0252,-0.0264,-0.0277,-0.0268,-0.0165,-0.0246,-0.0245,-0.0244,-0.0244,-0.0243,-0.063,-0.0633,-0.0601,-0.0588,-0.0567,-0.0548,-0.0546,-0.0515,-0.0503,-0.048,-0.0454,-0.0443,-0.0414,-0.0379,-0.0361,-0.0352,-0.0333,-0.0339,-0.0341,-0.0343,-0.0347,-0.0279,-0.0348,-0.0347,-0.0347,-0.0347,-0.0346,0,-0.0715,-0.0692,-0.068,-0.0651,-0.0641,-0.0608,-0.0583,-0.0576,-0.0567,-0.0542,-0.0527,-0.0511,-0.0496,-0.0458,-0.0439,-0.0439,-0.0422,-0.0435,-0.0434,-0.0429,-0.0367,-0.0364,-0.0449,-0.0449,-0.0449,-0.0448,-0.0448,-0.0448,-0.0758,-0.076,-0.0735,-0.0725,-0.0702,-0.069,-0.0679,-0.066,-0.064,-0.0624,-0.061,-0.0585,-0.0555,-0.0532,-0.0516,-0.0505,-0.05,-0.0518,-0.0502,-0.0444,-0.0434,-0.0425,-0.0422,-0.0517,-0.0518,-0.0565,-0.0566,-0.0566]}]]